Lid_Strength_Index
4 2 3 1 2 3 4 2 6 1 -0 5 6 10 6 7 5 6 7 6 7 8 8 9 9 10 8 6 6 8 6 8 10 9 6 6 7 7 8 11 12 12 15 16
3 2 3 1 2 2 1 4 3 -0 1 9 9 5 6 5 6 6 7 7 6 6 8 9 9 7 6 6 6 8 7 8 11 10 8 6 8 7 7 7 8 12 14 14
3 2 3 1 2 2 1 4 6 3 2 3 5 6 6 7 5 5 5 6 6 7 8 7 8 8 6 6 6 5 5 8 10 13 10 8 9 8 7 8 10 10 13 12
3 2 3 1 2 2 1 3 5 4 6 5 5 5 6 7 7 5 5 6 6 7 9 8 8 7 6 6 6 6 7 10 8 8 8 8 8 8 8 8 8 13 12 12
2 2 2 1 2 3 2 4 4 3 4 5 5 6 6 7 6 6 7 7 6 6 10 8 9 7 6 7 6 6 6 9 8 9 9 8 9 8 8 8 8 9 11 12
2 2 2 0 1 3 2 1 1 3 5 5 6 6 6 6 5 5 5 5 6 7 6 5 5 4 5 5 6 6 7 8 9 11 8 9 11 9 9 8 7 9 12 11
2 2 2 -0 1 2 1 1 2 5 6 5 6 5 5 6 5 6 5 4 6 5 3 3 4 4 5 5 5 5 7 8 9 11 9 14 9 6 7 8 7 7 8 8
2 3 1 -0 0 1 0 0 2 4 6 5 5 5 5 5 5 5 5 4 3 3 4 6 8 8 7 7 6 6 5 7 9 12 12 9 9 8 8 8 8 6 7 7
2 3 1 -1 -0 1 1 0 -0 3 5 5 4 5 5 6 6 6 5 3 2 3 5 7 11 11 9 10 8 5 6 6 9 10 12 14 9 6 6 6 9 5 6 6
3 3 2 -1 -1 0 1 1 -1 2 5 3 3 5 5 4 4 6 5 5 5 3 6 9 10 13 9 12 11 10 9 8 10 10 11 9 6 6 5 10 9 5 5 5
3 3 3 -0 -0 -0 1 1 -1 2 4 3 2 3 4 4 4 6 5 5 5 6 8 8 10 10 10 10 8 9 10 10 11 9 11 13 5 6 8 7 5 4 4 4
4 4 3 0 -0 -0 1 2 -1 -1 3 3 1 1 1 2 2 4 4 5 5 5 7 7 7 9 8 10 12 6 11 8 10 10 10 5 4 5 4 4 5 4 4 4
4 4 4 2 -0 -0 0 1 -0 1 3 3 3 3 1 0 1 0 5 4 3 4 3 5 6 9 7 11 10 9 6 5 8 8 7 6 5 4 3 3 4 3 3 3
4 4 4 2 0 0 1 1 -0 1 3 5 5 1 2 0 0 1 1 2 2 2 3 5 6 8 5 8 8 8 7 6 7 8 6 5 5 4 4 3 3 3 3 3
5 5 4 4 1 1 0 -1 -1 -1 3 7 5 2 1 1 1 1 1 2 2 4 5 6 8 5 7 6 6 8 5 6 9 10 5 5 5 3 3 3 4 3 3 3
5 5 5 4 1 1 1 3 -0 -1 0 4 7 2 3 2 1 2 2 2 3 4 5 6 6 5 7 10 11 7 6 5 5 6 4 3 3 3 2 3 3 2 2 3
5 5 5 4 2 1 2 4 2 1 -0 4 7 6 3 2 2 2 3 2 3 4 5 6 7 7 6 9 12 6 6 5 5 4 4 5 3 4 2 2 2 2 2 2
5 5 5 3 1 3 2 0 2 1 2 3 7 7 5 2 6 7 3 4 4 4 5 5 7 6 7 12 7 6 5 5 5 4 3 4 3 3 3 2 2 3 3 3
5 5 3 -0 1 2 2 1 -0 -1 2 6 6 8 9 3 5 4 4 4 8 4 7 6 6 10 12 8 7 6 5 5 5 4 4 5 4 4 4 3 3 3 3 3
6 3 2 5 2 1 0 1 4 3 3 4 6 3 7 4 6 6 6 6 8 9 7 6 8 9 6 5 4 4 4 4 4 5 6 5 5 5 4 5 3 3 4 2
2 3 4 1 1 1 3 6 6 6 7 5 5 5 6 3 6 6 5 7 7 11 9 9 10 9 7 4 4 3 3 3 3 3 3 3 3 3 4 5 4 4 3 3
2 2 0 1 3 5 8 8 6 7 9 6 7 6 4 4 3 5 5 8 7 11 6 8 11 7 5 4 4 3 3 3 3 3 3 3 3 3 3 3 3 3 3 3
-0 2 4 6 6 12 10 11 9 9 6 5 5 6 5 4 4 5 6 9 10 5 9 10 8 6 4 4 4 3 3 3 3 3 2 2 2 2 2 2 2 2 2 2
4 6 12 9 9 8 7 7 7 4 3 4 4 5 5 4 6 6 9 7 6 10 11 10 7 7 4 3 3 4 4 3 3 3 2 2 2 2 2 1 1 2 2 2
5 5 11 8 6 6 4 3 4 3 3 3 5 4 5 6 7 6 6 8 10 8 9 7 6 4 3 3 3 3 3 3 3 2 2 3 2 2 2 2 1 2 2 2
4 4 6 5 8 7 6 6 5 3 3 3 3 6 7 7 6 8 8 9 10 7 5 5 4 4 3 3 3 2 2 2 3 2 2 3 3 2 3 2 1 2 2 2
5 5 3 5 5 7 6 5 5 2 4 6 4 8 8 5 7 8 6 7 6 5 4 4 4 3 3 2 2 2 2 3 3 2 2 2 2 2 2 3 2 2 1 3